Sussex, NJ

11:10 PM EDT on March 22, 2017 (GMT -0400)
Sussex

Weather History for KFWN - June, 2013

Change the Weather History Date:

Tuesday, June 18, 2013

  Actual Average Record
Temperature  
Mean Temperature 68 °F -  
Max Temperature 82 °F 78 °F 94 °F (1957)
Min Temperature 55 °F 54 °F 40 °F (1958)
Cooling Degree Days 3    
Growing Degree Days 18 (Base 50)    
Moisture  
Dew Point 60 °F    
Average Humidity 81    
Maximum Humidity 100    
Minimum Humidity 47    
Precipitation  
Precipitation 0.03 in - - ()
Sea Level Pressure  
Sea Level Pressure 29.88 in    
Wind  
Wind Speed 2 mph (NE)    
Max Wind Speed 12 mph    
Max Gust Speed -    
Visibility 9 miles    
Events Rain , Thunderstorm    
Averages and records for this station are not official NWS values.
T = Trace of Precipitation, MM = Missing Value Source: NWS Daily Summary

Daily Weather History Graph

Daily Weather History Graph

Search for Another Location

Airport or City:

Trip Planner

Search our weather history database for the weather conditions in past years. The results will help you decide how hot, cold, wet, or windy it might be!

Date:

Astronomy

Jun. 18, 2013 Rise Set
Actual Time 5:25 AM EDT 8:34 PM EDT
Civil Twilight 4:51 AM EDT 9:07 PM EDT
Nautical Twilight 4:08 AM EDT 9:51 PM EDT
Astronomical Twilight 3:16 AM EDT 10:42 PM EDT
Moon 3:13 PM EDT (6/18) 1:34 AM EDT (6/18)
Length of Visible Light 16h 16m
Length of Day
15h 08m
Waxing Gibbous, 70% of the Moon is Illuminated
Jun 18
Waxing Gibbous
Jun 23
Full
Jun 30
Last Quarter
Jul 8
New
Jul 15
First Quarter

Hourly Weather History & Observations

Time (EDT) Temp. Heat Index Dew Point Humidity Pressure Visibility Wind Dir Wind Speed Gust Speed Precip Events Conditions
12:53 AM 62.1 °F - 60.1 °F 93% 29.91 in 10.0 mi Calm Calm - N/A   Mostly Cloudy
1:53 AM 60.1 °F - 59.0 °F 96% 29.91 in 7.0 mi Calm Calm - N/A   Clear
2:53 AM 57.9 °F - 57.0 °F 97% 29.89 in 5.0 mi Calm Calm - N/A   Clear
3:53 AM 57.0 °F - 55.9 °F 96% 29.88 in 6.0 mi SE 3.5 mph - N/A   Clear
4:53 AM 57.0 °F - 55.0 °F 93% 29.88 in 2.0 mi Calm Calm - N/A   Clear
5:07 AM 57.2 °F - 55.4 °F 94% 29.89 in 5.0 mi Calm Calm - N/A   Clear
5:30 AM 55.4 °F - 55.4 °F 100% 29.90 in 5.0 mi Calm Calm - N/A   Partly Cloudy
5:53 AM 57.0 °F - 55.9 °F 96% 29.89 in 7.0 mi Calm Calm - N/A   Clear
6:53 AM 60.1 °F - 57.9 °F 93% 29.90 in 10.0 mi Calm Calm - N/A   Clear
7:53 AM 64.0 °F - 61.0 °F 90% 29.90 in 10.0 mi Calm Calm - N/A   Clear
8:53 AM 69.1 °F - 62.1 °F 78% 29.91 in 10.0 mi Calm Calm - N/A   Clear
9:53 AM 73.9 °F - 63.0 °F 68% 29.89 in 10.0 mi Calm Calm - N/A   Clear
10:53 AM 75.9 °F - 62.1 °F 62% 29.88 in 10.0 mi Calm Calm - N/A   Clear
11:53 AM 79.0 °F - 64.9 °F 62% 29.87 in 10.0 mi Calm Calm - N/A   Clear
12:53 PM 81.0 °F 82.2 °F 63.0 °F 54% 29.84 in 10.0 mi Calm Calm - N/A   Clear
1:53 PM 81.0 °F 81.3 °F 59.0 °F 47% 29.83 in 10.0 mi Calm Calm - N/A   Clear
2:10 PM 78.8 °F - 60.8 °F 54% 29.84 in 10.0 mi Calm Calm - N/A Thunderstorm Clear
2:22 PM 78.8 °F - 66.2 °F 65% 29.84 in 10.0 mi Calm Calm - N/A Thunderstorm Clear
2:39 PM 77.0 °F - 68.0 °F 74% 29.84 in 10.0 mi North 4.6 mph - N/A Thunderstorm Scattered Clouds
2:53 PM 75.0 °F - 64.9 °F 71% 29.84 in 10.0 mi NNE 4.6 mph - N/A Thunderstorm Mostly Cloudy
3:04 PM 73.4 °F - 64.4 °F 73% 29.84 in 10.0 mi Variable 4.6 mph - N/A   Overcast
3:53 PM 71.1 °F - 68.0 °F 90% 29.84 in 10.0 mi NE 6.9 mph - 0.01 in Rain Light Rain
4:20 PM 69.8 °F - 62.6 °F 78% 29.86 in 10.0 mi NNE 10.4 mph - 0.00 in Thunderstorm Overcast
4:35 PM 68.0 °F - 62.6 °F 83% 29.85 in 10.0 mi NNE 8.1 mph - 0.00 in   Scattered Clouds
4:53 PM 68.0 °F - 62.1 °F 81% 29.84 in 10.0 mi NNE 4.6 mph - 0.00 in   Clear
5:53 PM 66.0 °F - 62.1 °F 87% 29.87 in 10.0 mi NE 11.5 mph - 0.01 in   Overcast
6:11 PM 64.4 °F - 60.8 °F 88% 29.87 in 10.0 mi NE 10.4 mph - N/A   Overcast
6:35 PM 64.4 °F - 60.8 °F 88% 29.88 in 10.0 mi NE 10.4 mph - N/A   Overcast
6:53 PM 64.9 °F - 59.0 °F 81% 29.88 in 10.0 mi NNE 8.1 mph - N/A   Overcast
7:18 PM 64.4 °F - 57.2 °F 77% 29.87 in 10.0 mi NE 6.9 mph - N/A   Overcast
7:53 PM 64.0 °F - 59.0 °F 84% 29.88 in 10.0 mi NNE 8.1 mph - N/A   Overcast
8:07 PM 64.4 °F - 57.2 °F 77% 29.88 in 10.0 mi NE 6.9 mph - N/A   Overcast
8:53 PM 63.0 °F - 57.0 °F 81% 29.90 in 10.0 mi NE 6.9 mph - 0.00 in Rain Light Rain
9:53 PM 62.1 °F - 54.0 °F 75% 29.91 in 10.0 mi NNE 9.2 mph - 0.00 in   Overcast
10:53 PM 57.9 °F - 55.0 °F 90% 29.92 in 10.0 mi NNE 5.8 mph - 0.01 in   Overcast
11:04 PM 57.2 °F - 55.4 °F 94% 29.93 in 10.0 mi NNE 3.5 mph - N/A   Overcast
11:53 PM 57.9 °F - 55.9 °F 93% 29.93 in 10.0 mi NE 3.5 mph - 0.00 in   Overcast